Location: Burjasot
(39.5167°N, 0.4167°W)
Time: 15:30:24
(UTC+02:00)

ISS - Pass Details

Date: 25 May 2019
Orbit: 408 x 418 km, 51.6° (Epoch: 25 June)

Event Time Altitude Azimuth Distance (km) Brightness Sun altitude
Rises 00:08:52 0° 311° (NW) 2,360 1.2 -24.4°
Reaches altitude 10° 00:12:18 10° 348° (NNW) 1,499 0.0 -24.7°
Maximum altitude 00:13:23 11° 7° (N) 1,428 -0.4 -24.8°
Drops below altitude 10° 00:14:29 10° 26° (NNE) 1,500 -0.5 -24.9°
Enters shadow 00:15:59 - 47° (NE) 1,794 -0.4 -25.1°
